パンスターズ彗星

253P/PanSTARRS (2005)

English version
Home page
Updated on October 20, 2011

---------------------------------------------------------------------

・ プロフィール

・ 軌道要素

Epoch 2005 May 30.0 TT = JDT 2453520.5
T 2005 June 4.01162 TT                                  MPC
q   2.0498886            (2000.0)            P               Q
n   0.15195864     Peri.  231.08720     +0.94942828     -0.31045283
a   3.4779163      Node   146.92271     +0.30808023     +0.89223494
e   0.4105986      Incl.    4.93574     +0.06060122     +0.32792660
P   6.49
From 221 observations 1998 Sept. 14-2011 Oct. 15, mean residual 0".49.

・ 光度変化

        m1 = 12.0 + 5 logΔ + 15.0 log r

---------------------------------------------------------------------

軌道要素はM.P.E.C. 2011-U02に掲載されたものです。
光度グラフはComet for Windowsで作成したものです。

---------------------------------------------------------------------

Copyright(C) Seiichi Yoshida (comet@aerith.net). All rights reserved.